Location: Gro� Glienicke
(52.4675°N, 13.1079°E)
Time: 18:54:25
(UTC+00:00)

USA 81 - Pass Details

Date: 06 July 2020
Orbit: 786 x 788 km, 85.0° (Epoch: 17 July)

Event Time Altitude Azimuth Distance (km) Brightness Sun altitude
Exits shadow 20:48:47 - 185° (S) 2,898 6.5 -8.7°
Reaches altitude 10° 20:50:12 10° 185° (S) 2,343 6.0 -8.8°
Maximum altitude 20:55:28 90° 253° (WSW) 795 4.1 -9.2°
Drops below altitude 10° 21:00:47 10° 7° (N) 2,360 7.4 -9.7°
Sets 21:03:09 0° 7° (N) 3,293 8.2 -9.8°
